contact:dominique.lefevre@mio.osupytheas.fr, maurice.libes@osupytheas.fr, didier.mallarino@osupytheas.fr
Project:EMSO http://www.emso-fr.org/EMSO-France
Depth: 2436.0 m
Title:EMSO Ligure Ouest : Data MII capteur MICROCAT
DateTime_Computer,Latitude,Longitude,Temperature,Conductivity,Pressure,DateTime_Instrument
DateTime_Computer,Latitude,Longitude,degC,S m-1,dbar,DateTime_Instrument
2023-07-02T00:03:02Z,42.805,6.029,13.3026,4.60081,2470.646,2023-7-02T02:05:17Z
2023-07-02T00:06:05Z,42.805,6.029,13.3026,4.60082,2470.624,2023-7-02T02:08:20Z
2023-07-02T00:09:08Z,42.805,6.029,13.3024,4.60081,2470.61,2023-7-02T02:11:23Z
2023-07-02T00:12:11Z,42.805,6.029,13.3022,4.60081,2470.614,2023-7-02T02:14:26Z
2023-07-02T00:15:14Z,42.805,6.029,13.3028,4.60082,2470.624,2023-7-02T02:17:29Z
2023-07-02T00:18:17Z,42.805,6.029,13.3023,4.60082,2470.637,2023-7-02T02:20:32Z
2023-07-02T00:21:20Z,42.805,6.029,13.3024,4.60082,2470.624,2023-7-02T02:23:36Z
2023-07-02T00:24:23Z,42.805,6.029,13.3024,4.60081,2470.624,2023-7-02T02:26:39Z
2023-07-02T00:27:26Z,42.805,6.029,13.3024,4.60081,2470.637,2023-7-02T02:29:42Z
2023-07-02T00:30:29Z,42.805,6.029,13.3028,4.60082,2470.624,2023-7-02T02:32:45Z
2023-07-02T00:33:32Z,42.805,6.029,13.3026,4.60081,2470.646,2023-7-02T02:35:48Z
2023-07-02T00:36:35Z,42.805,6.029,13.3026,4.60081,2470.624,2023-7-02T02:38:51Z
2023-07-02T00:39:38Z,42.805,6.029,13.3025,4.60081,2470.646,2023-7-02T02:41:54Z
2023-07-02T00:42:42Z,42.805,6.029,13.3026,4.60081,2470.646,2023-7-02T02:44:57Z
2023-07-02T00:45:45Z,42.805,6.029,13.3026,4.60081,2470.637,2023-7-02T02:48:00Z
2023-07-02T00:48:48Z,42.805,6.029,13.3025,4.60081,2470.624,2023-7-02T02:51:03Z
2023-07-02T00:51:51Z,42.805,6.029,13.3022,4.60081,2470.646,2023-7-02T02:54:06Z
2023-07-02T00:54:54Z,42.805,6.029,13.3024,4.60081,2470.624,2023-7-02T02:57:09Z
2023-07-02T00:57:57Z,42.805,6.029,13.3022,4.60083,2470.646,2023-7-02T03:00:12Z
2023-07-02T01:01:00Z,42.805,6.029,13.3026,4.60084,2470.637,2023-7-02T03:03:16Z
2023-07-02T01:04:03Z,42.805,6.029,13.3025,4.60082,2470.6,2023-7-02T03:06:19Z
2023-07-02T01:07:06Z,42.805,6.029,13.3026,4.60083,2470.624,2023-7-02T03:09:22Z
2023-07-02T01:10:09Z,42.805,6.029,13.3026,4.60082,2470.67,2023-7-02T03:12:25Z
2023-07-02T01:13:12Z,42.805,6.029,13.3028,4.60083,2470.637,2023-7-02T03:15:28Z
2023-07-02T01:16:15Z,42.805,6.029,13.3026,4.60082,2470.661,2023-7-02T03:18:31Z
2023-07-02T01:19:18Z,42.805,6.029,13.3026,4.60082,2470.624,2023-7-02T03:21:34Z
2023-07-02T01:22:22Z,42.805,6.029,13.3025,4.60081,2470.624,2023-7-02T03:24:37Z
2023-07-02T01:25:25Z,42.805,6.029,13.3027,4.60081,2470.624,2023-7-02T03:27:40Z
2023-07-02T01:28:28Z,42.805,6.029,13.3019,4.60081,2470.624,2023-7-02T03:30:43Z
2023-07-02T01:31:31Z,42.805,6.029,13.3026,4.60081,2470.646,2023-7-02T03:33:46Z
2023-07-02T01:34:34Z,42.805,6.029,13.3026,4.60081,2470.646,2023-7-02T03:36:49Z
2023-07-02T01:37:37Z,42.805,6.029,13.3024,4.60081,2470.6,2023-7-02T03:39:52Z
2023-07-02T01:40:40Z,42.805,6.029,13.3026,4.60082,2470.614,2023-7-02T03:42:56Z
2023-07-02T01:43:43Z,42.805,6.029,13.3022,4.60081,2470.637,2023-7-02T03:45:59Z
2023-07-02T01:46:46Z,42.805,6.029,13.3021,4.60081,2470.624,2023-7-02T03:49:02Z
2023-07-02T01:49:49Z,42.805,6.029,13.3026,4.60081,2470.614,2023-7-02T03:52:05Z
2023-07-02T01:52:52Z,42.805,6.029,13.3025,4.60081,2470.624,2023-7-02T03:55:08Z
2023-07-02T01:55:55Z,42.805,6.029,13.3024,4.60082,2470.646,2023-7-02T03:58:11Z
2023-07-02T01:58:58Z,42.805,6.029,13.3026,4.60082,2470.614,2023-7-02T04:01:14Z
2023-07-02T02:02:02Z,42.805,6.029,13.3025,4.60081,2470.637,2023-7-02T04:04:17Z
2023-07-02T02:05:05Z,42.805,6.029,13.3025,4.60081,2470.624,2023-7-02T04:07:20Z
2023-07-02T02:08:08Z,42.805,6.029,13.3026,4.60081,2470.646,2023-7-02T04:10:23Z
2023-07-02T02:11:11Z,42.805,6.029,13.3026,4.60082,2470.633,2023-7-02T04:13:26Z
2023-07-02T02:14:14Z,42.805,6.029,13.3023,4.60081,2470.624,2023-7-02T04:16:29Z
2023-07-02T02:17:17Z,42.805,6.029,13.3023,4.60081,2470.646,2023-7-02T04:19:32Z
2023-07-02T02:20:20Z,42.805,6.029,13.3027,4.60082,2470.624,2023-7-02T04:22:35Z
2023-07-02T02:23:23Z,42.805,6.029,13.3025,4.60081,2470.661,2023-7-02T04:25:39Z
2023-07-02T02:26:26Z,42.805,6.029,13.3022,4.60082,2470.646,2023-7-02T04:28:42Z
2023-07-02T02:29:29Z,42.805,6.029,13.3029,4.60081,2470.646,2023-7-02T04:31:45Z
2023-07-02T02:32:32Z,42.805,6.029,13.3021,4.60081,2470.646,2023-7-02T04:34:48Z
2023-07-02T02:35:35Z,42.805,6.029,13.3024,4.60081,2470.67,2023-7-02T04:37:51Z
2023-07-02T02:38:38Z,42.805,6.029,13.3025,4.60081,2470.646,2023-7-02T04:40:54Z
2023-07-02T02:41:41Z,42.805,6.029,13.3023,4.60081,2470.646,2023-7-02T04:43:57Z
2023-07-02T02:44:45Z,42.805,6.029,13.3025,4.60081,2470.661,2023-7-02T04:47:00Z
2023-07-02T02:47:48Z,42.805,6.029,13.3025,4.60081,2470.646,2023-7-02T04:50:03Z
2023-07-02T02:50:51Z,42.805,6.029,13.3024,4.60081,2470.67,2023-7-02T04:53:06Z
2023-07-02T02:53:54Z,42.805,6.029,13.3025,4.60081,2470.67,2023-7-02T04:56:09Z
2023-07-02T02:56:57Z,42.805,6.029,13.3026,4.60081,2470.646,2023-7-02T04:59:12Z
2023-07-02T03:00:00Z,42.805,6.029,13.3024,4.60081,2470.646,2023-7-02T05:02:15Z
2023-07-02T03:03:03Z,42.805,6.029,13.3024,4.60081,2470.661,2023-7-02T05:05:19Z
2023-07-02T03:06:06Z,42.805,6.029,13.3025,4.60081,2470.67,2023-7-02T05:08:22Z
2023-07-02T03:09:09Z,42.805,6.029,13.3026,4.60082,2470.684,2023-7-02T05:11:25Z
2023-07-02T03:12:12Z,42.805,6.029,13.3021,4.60081,2470.67,2023-7-02T05:14:28Z
2023-07-02T03:15:15Z,42.805,6.029,13.3022,4.60081,2470.646,2023-7-02T05:17:31Z
2023-07-02T03:18:18Z,42.805,6.029,13.3026,4.60081,2470.67,2023-7-02T05:20:34Z
2023-07-02T03:21:21Z,42.805,6.029,13.3026,4.60082,2470.661,2023-7-02T05:23:37Z
2023-07-02T03:24:25Z,42.805,6.029,13.3028,4.60081,2470.67,2023-7-02T05:26:40Z
2023-07-02T03:27:28Z,42.805,6.029,13.3025,4.60081,2470.67,2023-7-02T05:29:43Z
2023-07-02T03:30:31Z,42.805,6.029,13.3027,4.60081,2470.67,2023-7-02T05:32:46Z
2023-07-02T03:33:34Z,42.805,6.029,13.3029,4.60081,2470.67,2023-7-02T05:35:49Z
2023-07-02T03:36:37Z,42.805,6.029,13.3024,4.60081,2470.684,2023-7-02T05:38:52Z
2023-07-02T03:39:40Z,42.805,6.029,13.3029,4.60081,2470.684,2023-7-02T05:41:55Z
2023-07-02T03:42:43Z,42.805,6.029,13.3025,4.60081,2470.67,2023-7-02T05:44:59Z
2023-07-02T03:45:46Z,42.805,6.029,13.3027,4.60081,2470.717,2023-7-02T05:48:02Z
2023-07-02T03:48:49Z,42.805,6.029,13.3026,4.60081,2470.693,2023-7-02T05:51:05Z
2023-07-02T03:51:52Z,42.805,6.029,13.3024,4.60081,2470.679,2023-7-02T05:54:08Z
2023-07-02T03:54:55Z,42.805,6.029,13.3024,4.60081,2470.684,2023-7-02T05:57:11Z
2023-07-02T03:57:58Z,42.805,6.029,13.3024,4.60081,2470.684,2023-7-02T06:00:14Z
2023-07-02T04:01:01Z,42.805,6.029,13.3024,4.60081,2470.693,2023-7-02T06:03:17Z
2023-07-02T04:04:04Z,42.805,6.029,13.3024,4.60081,2470.707,2023-7-02T06:06:20Z
2023-07-02T04:07:08Z,42.805,6.029,13.3024,4.60081,2470.693,2023-7-02T06:09:23Z
2023-07-02T04:10:11Z,42.805,6.029,13.3027,4.60081,2470.703,2023-7-02T06:12:26Z
2023-07-02T04:13:14Z,42.805,6.029,13.3023,4.60081,2470.693,2023-7-02T06:15:29Z
2023-07-02T04:16:17Z,42.805,6.029,13.3027,4.60082,2470.717,2023-7-02T06:18:32Z
2023-07-02T04:19:20Z,42.805,6.029,13.3029,4.60081,2470.73,2023-7-02T06:21:35Z
2023-07-02T04:22:23Z,42.805,6.029,13.3024,4.60082,2470.717,2023-7-02T06:24:38Z
2023-07-02T04:25:26Z,42.805,6.029,13.3024,4.60081,2470.693,2023-7-02T06:27:42Z
2023-07-02T04:28:29Z,42.805,6.029,13.3025,4.60082,2470.73,2023-7-02T06:30:45Z
2023-07-02T04:31:33Z,42.805,6.029,13.3022,4.60083,2470.717,2023-7-02T06:33:48Z
2023-07-02T04:34:36Z,42.805,6.029,13.3021,4.60081,2470.717,2023-7-02T06:36:51Z
2023-07-02T04:37:39Z,42.805,6.029,13.3024,4.60082,2470.717,2023-7-02T06:39:55Z
2023-07-02T04:40:42Z,42.805,6.029,13.3023,4.60081,2470.717,2023-7-02T06:42:58Z
2023-07-02T04:43:45Z,42.805,6.029,13.3026,4.60082,2470.693,2023-7-02T06:46:01Z
2023-07-02T04:46:48Z,42.805,6.029,13.3027,4.60082,2470.693,2023-7-02T06:49:04Z
2023-07-02T04:49:51Z,42.805,6.029,13.3024,4.60082,2470.717,2023-7-02T06:52:07Z
2023-07-02T04:52:54Z,42.805,6.029,13.3029,4.60082,2470.707,2023-7-02T06:55:10Z
2023-07-02T04:55:57Z,42.805,6.029,13.3025,4.60082,2470.73,2023-7-02T06:58:13Z
2023-07-02T04:59:00Z,42.805,6.029,13.3026,4.60081,2470.717,2023-7-02T07:01:16Z
2023-07-02T05:02:04Z,42.805,6.029,13.3026,4.60082,2470.717,2023-7-02T07:04:19Z
2023-07-02T05:05:07Z,42.805,6.029,13.3024,4.60082,2470.703,2023-7-02T07:07:22Z
2023-07-02T05:08:10Z,42.805,6.029,13.3026,4.60082,2470.717,2023-7-02T07:10:25Z
2023-07-02T05:11:13Z,42.805,6.029,13.3026,4.60082,2470.693,2023-7-02T07:13:28Z
2023-07-02T05:14:16Z,42.805,6.029,13.3027,4.60081,2470.73,2023-7-02T07:16:31Z
2023-07-02T05:17:19Z,42.805,6.029,13.3025,4.60082,2470.73,2023-7-02T07:19:34Z
2023-07-02T05:20:22Z,42.805,6.029,13.3026,4.60084,2470.754,2023-7-02T07:22:38Z
2023-07-02T05:23:25Z,42.805,6.029,13.3021,4.60084,2470.763,2023-7-02T07:25:41Z
2023-07-02T05:26:28Z,42.805,6.029,13.3024,4.60082,2470.763,2023-7-02T07:28:44Z
2023-07-02T05:29:31Z,42.805,6.029,13.3023,4.60082,2470.74,2023-7-02T07:31:47Z
2023-07-02T05:32:34Z,42.805,6.029,13.3026,4.60082,2470.763,2023-7-02T07:34:50Z
2023-07-02T05:35:37Z,42.805,6.029,13.3024,4.60083,2470.754,2023-7-02T07:37:53Z
2023-07-02T05:38:41Z,42.805,6.029,13.3024,4.60083,2470.717,2023-7-02T07:40:56Z
2023-07-02T05:41:44Z,42.805,6.029,13.3028,4.60082,2470.717,2023-7-02T07:43:59Z
2023-07-02T05:44:47Z,42.805,6.029,13.3024,4.60084,2470.74,2023-7-02T07:47:02Z
2023-07-02T05:47:50Z,42.805,6.029,13.3028,4.60083,2470.74,2023-7-02T07:50:05Z
2023-07-02T05:50:53Z,42.805,6.029,13.3024,4.60084,2470.777,2023-7-02T07:53:08Z
2023-07-02T05:53:56Z,42.805,6.029,13.3025,4.60081,2470.777,2023-7-02T07:56:11Z
2023-07-02T05:56:59Z,42.805,6.029,13.3027,4.60084,2470.73,2023-7-02T07:59:15Z
2023-07-02T06:00:02Z,42.805,6.029,13.3028,4.60082,2470.777,2023-7-02T08:02:18Z
2023-07-02T06:03:05Z,42.805,6.029,13.3028,4.60082,2470.754,2023-7-02T08:05:21Z
2023-07-02T06:06:08Z,42.805,6.029,13.3026,4.60082,2470.754,2023-7-02T08:08:24Z
2023-07-02T06:09:11Z,42.805,6.029,13.3026,4.60081,2470.693,2023-7-02T08:11:27Z
2023-07-02T06:12:14Z,42.805,6.029,13.3026,4.60081,2470.693,2023-7-02T08:14:30Z
2023-07-02T06:15:17Z,42.805,6.029,13.3026,4.60082,2470.74,2023-7-02T08:17:33Z
2023-07-02T06:18:21Z,42.805,6.029,13.3024,4.60082,2470.754,2023-7-02T08:20:36Z
2023-07-02T06:21:24Z,42.805,6.029,13.3024,4.60082,2470.717,2023-7-02T08:23:39Z
2023-07-02T06:24:27Z,42.805,6.029,13.3027,4.60081,2470.717,2023-7-02T08:26:42Z
2023-07-02T06:27:30Z,42.805,6.029,13.3023,4.60081,2470.74,2023-7-02T08:29:45Z
2023-07-02T06:30:33Z,42.805,6.029,13.3024,4.60081,2470.74,2023-7-02T08:32:48Z
2023-07-02T06:33:36Z,42.805,6.029,13.3026,4.60081,2470.74,2023-7-02T08:35:51Z
2023-07-02T06:36:39Z,42.805,6.029,13.3026,4.60081,2470.763,2023-7-02T08:38:55Z
2023-07-02T06:39:42Z,42.805,6.029,13.3023,4.60082,2470.693,2023-7-02T08:41:58Z
2023-07-02T06:42:45Z,42.805,6.029,13.3025,4.60081,2470.73,2023-7-02T08:45:01Z
2023-07-02T06:45:48Z,42.805,6.029,13.3020,4.60081,2470.717,2023-7-02T08:48:04Z
2023-07-02T06:48:51Z,42.805,6.029,13.3024,4.60081,2470.73,2023-7-02T08:51:07Z
2023-07-02T06:51:54Z,42.805,6.029,13.3029,4.60081,2470.74,2023-7-02T08:54:10Z
2023-07-02T06:54:57Z,42.805,6.029,13.3027,4.60082,2470.693,2023-7-02T08:57:13Z
2023-07-02T06:58:01Z,42.805,6.029,13.3024,4.60081,2470.73,2023-7-02T09:00:16Z
2023-07-02T07:01:04Z,42.805,6.029,13.3027,4.60081,2470.693,2023-7-02T09:03:19Z
2023-07-02T07:04:07Z,42.805,6.029,13.3028,4.60081,2470.74,2023-7-02T09:06:22Z
2023-07-02T07:07:10Z,42.805,6.029,13.3025,4.60081,2470.74,2023-7-02T09:09:25Z
2023-07-02T07:10:13Z,42.805,6.029,13.3021,4.60081,2470.717,2023-7-02T09:12:28Z
2023-07-02T07:13:16Z,42.805,6.029,13.3026,4.60081,2470.74,2023-7-02T09:15:31Z
2023-07-02T07:16:19Z,42.805,6.029,13.3026,4.60084,2470.693,2023-7-02T09:18:34Z
2023-07-02T07:19:22Z,42.805,6.029,13.3027,4.60081,2470.754,2023-7-02T09:21:38Z
2023-07-02T07:22:25Z,42.805,6.029,13.3024,4.60081,2470.707,2023-7-02T09:24:41Z
2023-07-02T07:25:28Z,42.805,6.029,13.3026,4.60081,2470.717,2023-7-02T09:27:44Z
2023-07-02T07:28:31Z,42.805,6.029,13.3028,4.60082,2470.717,2023-7-02T09:30:47Z
2023-07-02T07:31:34Z,42.805,6.029,13.3024,4.60081,2470.684,2023-7-02T09:33:50Z
2023-07-02T07:34:37Z,42.805,6.029,13.3021,4.60082,2470.693,2023-7-02T09:36:53Z
2023-07-02T07:37:40Z,42.805,6.029,13.3027,4.60081,2470.67,2023-7-02T09:39:56Z
2023-07-02T07:40:44Z,42.805,6.029,13.3023,4.60081,2470.73,2023-7-02T09:42:59Z
2023-07-02T07:43:47Z,42.805,6.029,13.3021,4.60081,2470.73,2023-7-02T09:46:02Z
2023-07-02T07:46:50Z,42.805,6.029,13.3024,4.60081,2470.693,2023-7-02T09:49:05Z
2023-07-02T07:49:53Z,42.805,6.029,13.3024,4.60080,2470.74,2023-7-02T09:52:08Z
2023-07-02T07:52:56Z,42.805,6.029,13.3024,4.60081,2470.693,2023-7-02T09:55:11Z
2023-07-02T07:55:59Z,42.805,6.029,13.3027,4.60081,2470.646,2023-7-02T09:58:15Z
2023-07-02T07:59:02Z,42.805,6.029,13.3021,4.60081,2470.693,2023-7-02T10:01:18Z
2023-07-02T08:02:05Z,42.805,6.029,13.3024,4.60081,2470.684,2023-7-02T10:04:21Z
2023-07-02T08:05:08Z,42.805,6.029,13.3027,4.60081,2470.684,2023-7-02T10:07:24Z
2023-07-02T08:08:11Z,42.805,6.029,13.3022,4.60081,2470.707,2023-7-02T10:10:27Z
2023-07-02T08:11:14Z,42.805,6.029,13.3026,4.60081,2470.67,2023-7-02T10:13:30Z
2023-07-02T08:14:17Z,42.805,6.029,13.3026,4.60080,2470.684,2023-7-02T10:16:33Z
2023-07-02T08:17:21Z,42.805,6.029,13.3024,4.60081,2470.693,2023-7-02T10:19:36Z
2023-07-02T08:20:24Z,42.805,6.029,13.3026,4.60082,2470.67,2023-7-02T10:22:39Z
2023-07-02T08:23:27Z,42.805,6.029,13.3021,4.60081,2470.67,2023-7-02T10:25:42Z
2023-07-02T08:26:30Z,42.805,6.029,13.3024,4.60081,2470.646,2023-7-02T10:28:45Z
2023-07-02T08:29:33Z,42.805,6.029,13.3026,4.60081,2470.67,2023-7-02T10:31:48Z
2023-07-02T08:32:35Z,42.805,6.029,13.3025,4.60081,2470.684,2023-7-02T10:34:51Z
2023-07-02T08:35:39Z,42.805,6.029,13.3024,4.60081,2470.646,2023-7-02T10:37:54Z
2023-07-02T08:38:42Z,42.805,6.029,13.3025,4.60081,2470.684,2023-7-02T10:40:57Z
2023-07-02T08:41:45Z,42.805,6.029,13.3023,4.60081,2470.693,2023-7-02T10:44:00Z
2023-07-02T08:44:48Z,42.805,6.029,13.3025,4.60084,2470.67,2023-7-02T10:47:03Z
2023-07-02T08:47:51Z,42.805,6.029,13.3024,4.60083,2470.693,2023-7-02T10:50:06Z
2023-07-02T08:50:54Z,42.805,6.029,13.3024,4.60081,2470.67,2023-7-02T10:53:09Z
2023-07-02T08:53:57Z,42.805,6.029,13.3024,4.60081,2470.624,2023-7-02T10:56:13Z
2023-07-02T08:57:00Z,42.805,6.029,13.3026,4.60081,2470.624,2023-7-02T10:59:16Z
2023-07-02T09:00:03Z,42.805,6.029,13.3027,4.60081,2470.684,2023-7-02T11:02:19Z
2023-07-02T09:03:06Z,42.805,6.029,13.3026,4.60080,2470.646,2023-7-02T11:05:22Z
2023-07-02T09:06:09Z,42.805,6.029,13.3027,4.60080,2470.661,2023-7-02T11:08:25Z
2023-07-02T09:09:12Z,42.805,6.029,13.3021,4.60080,2470.646,2023-7-02T11:11:28Z
2023-07-02T09:12:15Z,42.805,6.029,13.3023,4.60080,2470.661,2023-7-02T11:14:31Z
2023-07-02T09:15:19Z,42.805,6.029,13.3025,4.60080,2470.646,2023-7-02T11:17:34Z
2023-07-02T09:18:22Z,42.805,6.029,13.3026,4.60080,2470.637,2023-7-02T11:20:37Z
2023-07-02T09:21:25Z,42.805,6.029,13.3022,4.60081,2470.624,2023-7-02T11:23:40Z
2023-07-02T09:24:28Z,42.805,6.029,13.3026,4.60081,2470.614,2023-7-02T11:26:43Z
2023-07-02T09:27:31Z,42.805,6.029,13.3022,4.60080,2470.646,2023-7-02T11:29:46Z
2023-07-02T09:30:34Z,42.805,6.029,13.3023,4.60081,2470.624,2023-7-02T11:32:50Z
2023-07-02T09:33:37Z,42.805,6.029,13.3022,4.60081,2470.6,2023-7-02T11:35:53Z
2023-07-02T09:36:40Z,42.805,6.029,13.3027,4.60081,2470.646,2023-7-02T11:38:56Z
2023-07-02T09:39:43Z,42.805,6.029,13.3022,4.60080,2470.624,2023-7-02T11:41:59Z
2023-07-02T09:42:46Z,42.805,6.029,13.3022,4.60082,2470.661,2023-7-02T11:45:02Z
2023-07-02T09:45:49Z,42.805,6.029,13.3025,4.60080,2470.67,2023-7-02T11:48:05Z
2023-07-02T09:48:52Z,42.805,6.029,13.3021,4.60080,2470.637,2023-7-02T11:51:08Z
2023-07-02T09:51:56Z,42.805,6.029,13.3024,4.60082,2470.637,2023-7-02T11:54:11Z
2023-07-02T09:54:59Z,42.805,6.029,13.3025,4.60080,2470.624,2023-7-02T11:57:14Z
2023-07-02T09:58:02Z,42.805,6.029,13.3024,4.60081,2470.6,2023-7-02T12:00:17Z
2023-07-02T10:01:05Z,42.805,6.029,13.3026,4.60081,2470.637,2023-7-02T12:03:20Z
2023-07-02T10:04:08Z,42.805,6.029,13.3025,4.60080,2470.624,2023-7-02T12:06:23Z
2023-07-02T10:07:11Z,42.805,6.029,13.3028,4.60081,2470.577,2023-7-02T12:09:27Z
2023-07-02T10:10:14Z,42.805,6.029,13.3024,4.60081,2470.614,2023-7-02T12:12:30Z
2023-07-02T10:13:17Z,42.805,6.029,13.3024,4.60080,2470.6,2023-7-02T12:15:33Z
2023-07-02T10:16:20Z,42.805,6.029,13.3021,4.60081,2470.6,2023-7-02T12:18:36Z
2023-07-02T10:19:23Z,42.805,6.029,13.3024,4.60082,2470.591,2023-7-02T12:21:39Z
2023-07-02T10:22:26Z,42.805,6.029,13.3024,4.60081,2470.591,2023-7-02T12:24:42Z
2023-07-02T10:25:29Z,42.805,6.029,13.3024,4.60081,2470.6,2023-7-02T12:27:45Z
2023-07-02T10:28:33Z,42.805,6.029,13.3021,4.60080,2470.6,2023-7-02T12:30:48Z
2023-07-02T10:31:34Z,42.805,6.029,13.3021,4.60079,2470.624,2023-7-02T12:33:50Z
2023-07-02T10:34:37Z,42.805,6.029,13.3025,4.60081,2470.6,2023-7-02T12:36:53Z
2023-07-02T10:37:40Z,42.805,6.029,13.3022,4.60079,2470.567,2023-7-02T12:39:56Z
2023-07-02T10:40:43Z,42.805,6.029,13.3022,4.60081,2470.591,2023-7-02T12:42:59Z
2023-07-02T10:43:46Z,42.805,6.029,13.3028,4.60080,2470.563,2023-7-02T12:46:02Z
2023-07-02T10:46:50Z,42.805,6.029,13.3021,4.60081,2470.586,2023-7-02T12:49:05Z
2023-07-02T10:49:53Z,42.805,6.029,13.3026,4.60081,2470.6,2023-7-02T12:52:08Z
2023-07-02T10:52:56Z,42.805,6.029,13.3021,4.60079,2470.577,2023-7-02T12:55:11Z
2023-07-02T10:55:59Z,42.805,6.029,13.3025,4.60081,2470.553,2023-7-02T12:58:14Z
2023-07-02T10:59:02Z,42.805,6.029,13.3021,4.60080,2470.591,2023-7-02T13:01:17Z
2023-07-02T11:02:05Z,42.805,6.029,13.3019,4.60081,2470.591,2023-7-02T13:04:20Z
2023-07-02T11:05:08Z,42.805,6.029,13.3024,4.60080,2470.577,2023-7-02T13:07:24Z
2023-07-02T11:08:11Z,42.805,6.029,13.3023,4.60081,2470.577,2023-7-02T13:10:27Z
2023-07-02T11:11:14Z,42.805,6.029,13.3020,4.60080,2470.577,2023-7-02T13:13:30Z
2023-07-02T11:14:17Z,42.805,6.029,13.3025,4.60080,2470.553,2023-7-02T13:16:33Z
2023-07-02T11:17:20Z,42.805,6.029,13.3022,4.60080,2470.577,2023-7-02T13:19:36Z
2023-07-02T11:20:23Z,42.805,6.029,13.3024,4.60080,2470.591,2023-7-02T13:22:39Z
2023-07-02T11:23:26Z,42.805,6.029,13.3026,4.60079,2470.577,2023-7-02T13:25:42Z
2023-07-02T11:26:30Z,42.805,6.029,13.3026,4.60080,2470.553,2023-7-02T13:28:45Z
2023-07-02T11:29:33Z,42.805,6.029,13.3025,4.60080,2470.553,2023-7-02T13:31:48Z
2023-07-02T11:32:36Z,42.805,6.029,13.3027,4.60080,2470.553,2023-7-02T13:34:51Z
2023-07-02T11:35:39Z,42.805,6.029,13.3028,4.60081,2470.577,2023-7-02T13:37:54Z
2023-07-02T11:38:42Z,42.805,6.029,13.3022,4.60081,2470.567,2023-7-02T13:40:57Z
2023-07-02T11:41:45Z,42.805,6.029,13.3026,4.60081,2470.553,2023-7-02T13:44:01Z
2023-07-02T11:44:48Z,42.805,6.029,13.3021,4.60080,2470.567,2023-7-02T13:47:04Z
2023-07-02T11:47:51Z,42.805,6.029,13.3025,4.60080,2470.553,2023-7-02T13:50:07Z
2023-07-02T11:50:54Z,42.805,6.029,13.3026,4.60081,2470.553,2023-7-02T13:53:10Z
2023-07-02T11:53:57Z,42.805,6.029,13.3025,4.60081,2470.53,2023-7-02T13:56:13Z
2023-07-02T11:57:00Z,42.805,6.029,13.3022,4.60081,2470.553,2023-7-02T13:59:16Z
2023-07-02T12:00:03Z,42.805,6.029,13.3023,4.60081,2470.553,2023-7-02T14:02:19Z
2023-07-02T12:03:06Z,42.805,6.029,13.3026,4.60080,2470.53,2023-7-02T14:05:22Z
2023-07-02T12:06:10Z,42.805,6.029,13.3024,4.60080,2470.577,2023-7-02T14:08:25Z
2023-07-02T12:09:13Z,42.805,6.029,13.3024,4.60083,2470.544,2023-7-02T14:11:28Z
2023-07-02T12:12:16Z,42.805,6.029,13.3024,4.60081,2470.553,2023-7-02T14:14:31Z
2023-07-02T12:15:19Z,42.805,6.029,13.3025,4.60081,2470.553,2023-7-02T14:17:34Z
2023-07-02T12:18:22Z,42.805,6.029,13.3024,4.60081,2470.591,2023-7-02T14:20:37Z
2023-07-02T12:21:25Z,42.805,6.029,13.3021,4.60080,2470.53,2023-7-02T14:23:41Z
2023-07-02T12:24:28Z,42.805,6.029,13.3029,4.60081,2470.553,2023-7-02T14:26:44Z
2023-07-02T12:27:31Z,42.805,6.029,13.3023,4.60081,2470.53,2023-7-02T14:29:47Z
2023-07-02T12:30:34Z,42.805,6.029,13.3021,4.60081,2470.553,2023-7-02T14:32:50Z
2023-07-02T12:33:37Z,42.805,6.029,13.3023,4.60080,2470.553,2023-7-02T14:35:53Z
2023-07-02T12:36:40Z,42.805,6.029,13.3022,4.60081,2470.553,2023-7-02T14:38:56Z
2023-07-02T12:39:43Z,42.805,6.029,13.3026,4.60081,2470.553,2023-7-02T14:41:59Z
2023-07-02T12:42:47Z,42.805,6.029,13.3028,4.60080,2470.53,2023-7-02T14:45:02Z
2023-07-02T12:45:50Z,42.805,6.029,13.3024,4.60081,2470.553,2023-7-02T14:48:05Z
2023-07-02T12:48:53Z,42.805,6.029,13.3025,4.60081,2470.563,2023-7-02T14:51:08Z
2023-07-02T12:51:56Z,42.805,6.029,13.3026,4.60081,2470.577,2023-7-02T14:54:11Z
2023-07-02T12:54:59Z,42.805,6.029,13.3026,4.60080,2470.577,2023-7-02T14:57:14Z
2023-07-02T12:58:02Z,42.805,6.029,13.3026,4.60080,2470.553,2023-7-02T15:00:17Z
2023-07-02T13:01:05Z,42.805,6.029,13.3028,4.60081,2470.553,2023-7-02T15:03:21Z
2023-07-02T13:04:08Z,42.805,6.029,13.3023,4.60081,2470.53,2023-7-02T15:06:24Z
2023-07-02T13:07:11Z,42.805,6.029,13.3026,4.60081,2470.553,2023-7-02T15:09:27Z
2023-07-02T13:10:14Z,42.805,6.029,13.3024,4.60082,2470.577,2023-7-02T15:12:30Z
2023-07-02T13:13:17Z,42.805,6.029,13.3021,4.60081,2470.553,2023-7-02T15:15:33Z
2023-07-02T13:16:20Z,42.805,6.029,13.3024,4.60080,2470.553,2023-7-02T15:18:36Z
2023-07-02T13:19:23Z,42.805,6.029,13.3026,4.60081,2470.577,2023-7-02T15:21:39Z
2023-07-02T13:22:27Z,42.805,6.029,13.3024,4.60081,2470.544,2023-7-02T15:24:42Z
2023-07-02T13:25:30Z,42.805,6.029,13.3022,4.60081,2470.553,2023-7-02T15:27:45Z
2023-07-02T13:28:33Z,42.805,6.029,13.3024,4.60081,2470.614,2023-7-02T15:30:48Z
2023-07-02T13:31:36Z,42.805,6.029,13.3028,4.60080,2470.553,2023-7-02T15:33:51Z
2023-07-02T13:34:39Z,42.805,6.029,13.3027,4.60081,2470.577,2023-7-02T15:36:54Z
2023-07-02T13:37:42Z,42.805,6.029,13.3026,4.60080,2470.553,2023-7-02T15:39:58Z
2023-07-02T13:40:45Z,42.805,6.029,13.3021,4.60081,2470.553,2023-7-02T15:43:01Z
2023-07-02T13:43:48Z,42.805,6.029,13.3024,4.60080,2470.553,2023-7-02T15:46:04Z
2023-07-02T13:46:51Z,42.805,6.029,13.3023,4.60081,2470.591,2023-7-02T15:49:07Z
2023-07-02T13:49:54Z,42.805,6.029,13.3026,4.60080,2470.577,2023-7-02T15:52:10Z
2023-07-02T13:52:57Z,42.805,6.029,13.3024,4.60081,2470.577,2023-7-02T15:55:13Z
2023-07-02T13:56:00Z,42.805,6.029,13.3024,4.60081,2470.591,2023-7-02T15:58:16Z
2023-07-02T13:59:04Z,42.805,6.029,13.3024,4.60080,2470.553,2023-7-02T16:01:19Z
2023-07-02T14:02:07Z,42.805,6.029,13.3024,4.60081,2470.577,2023-7-02T16:04:22Z
2023-07-02T14:05:10Z,42.805,6.029,13.3024,4.60080,2470.6,2023-7-02T16:07:25Z
2023-07-02T14:08:13Z,42.805,6.029,13.3026,4.60081,2470.591,2023-7-02T16:10:28Z
2023-07-02T14:11:16Z,42.805,6.029,13.3024,4.60081,2470.6,2023-7-02T16:13:31Z
2023-07-02T14:14:19Z,42.805,6.029,13.3024,4.60081,2470.577,2023-7-02T16:16:35Z
2023-07-02T14:17:22Z,42.805,6.029,13.3025,4.60081,2470.6,2023-7-02T16:19:38Z
2023-07-02T14:20:25Z,42.805,6.029,13.3023,4.60081,2470.577,2023-7-02T16:22:41Z
2023-07-02T14:23:28Z,42.805,6.029,13.3024,4.60080,2470.614,2023-7-02T16:25:44Z
2023-07-02T14:26:31Z,42.805,6.029,13.3024,4.60081,2470.6,2023-7-02T16:28:47Z
2023-07-02T14:29:34Z,42.805,6.029,13.3029,4.60081,2470.6,2023-7-02T16:31:50Z
2023-07-02T14:32:37Z,42.805,6.029,13.3028,4.60081,2470.6,2023-7-02T16:34:53Z
2023-07-02T14:35:41Z,42.805,6.029,13.3026,4.60081,2470.591,2023-7-02T16:37:56Z
2023-07-02T14:38:44Z,42.805,6.029,13.3024,4.60081,2470.614,2023-7-02T16:40:59Z
2023-07-02T14:41:47Z,42.805,6.029,13.3029,4.60081,2470.6,2023-7-02T16:44:02Z
2023-07-02T14:44:50Z,42.805,6.029,13.3026,4.60081,2470.661,2023-7-02T16:47:05Z
2023-07-02T14:47:53Z,42.805,6.029,13.3029,4.60081,2470.614,2023-7-02T16:50:08Z
2023-07-02T14:50:56Z,42.805,6.029,13.3026,4.60081,2470.624,2023-7-02T16:53:12Z
2023-07-02T14:53:59Z,42.805,6.029,13.3027,4.60082,2470.646,2023-7-02T16:56:15Z
2023-07-02T14:57:02Z,42.805,6.029,13.3024,4.60081,2470.661,2023-7-02T16:59:18Z
2023-07-02T15:00:05Z,42.805,6.029,13.3025,4.60081,2470.624,2023-7-02T17:02:21Z
2023-07-02T15:03:08Z,42.805,6.029,13.3024,4.60081,2470.646,2023-7-02T17:05:24Z
2023-07-02T15:06:11Z,42.805,6.029,13.3024,4.60082,2470.646,2023-7-02T17:08:27Z
2023-07-02T15:09:14Z,42.805,6.029,13.3024,4.60082,2470.624,2023-7-02T17:11:30Z
2023-07-02T15:12:17Z,42.805,6.029,13.3025,4.60081,2470.67,2023-7-02T17:14:33Z
2023-07-02T15:15:21Z,42.805,6.029,13.3025,4.60081,2470.637,2023-7-02T17:17:36Z